Regional Weather Roundup
Issued by NWS

Home | Current Version | Previous Version | Text Only | Print | Product List | Glossary Off
Versions: 1 2 3 4 5 6 7 8 9 10 11 12 13 14 15 16 17 18 19 20 21 22 23 24 25 26 27 28 29 30 31 32 33 34 35 36 37 38 39 40 41 42 43 44 45 46 47 48 49 50

366
ASUS45 KPSR 051510
RWRAZ

ARIZONA HOURLY REGIONAL WEATHER ROUNDUP
NATIONAL WEATHER SERVICE PHOENIX AZ
800 AM MST THU MAY 05 2016

NOTE: FAIR INDICATES FEW OR NO CLOUDS BELOW 12,000 FEET WITH NO
SIGNIFICANT WEATHER AND/OR OBSTRUCTIONS TO VISIBILITY.

AZZ001>003-036-051600-
NORTHWEST ARIZONA

CITY           SKY/WX    TMP DP  RH WIND       PRES   REMARKS
BULLHEAD CITY  MOSUNNY   77  32  19 SW6       29.79F
KINGMAN        MOSUNNY   71  23  16 SE17      29.90F
$$

AZZ004>008-015-016-018-051600-
NORTH CENTRAL ARIZONA

CITY           SKY/WX    TMP DP  RH WIND       PRES   REMARKS
GRAND CANYON   MOSUNNY   59  33  37 CALM      30.12R
WILLIAMS       SUNNY     61  25  25 SE13      30.19R
PRESCOTT       SUNNY     67  24  19 VRB7      30.03S
FLAGSTAFF      MOSUNNY   56  35  45 CALM      30.15R
PAYSON         SUNNY     68  27  21 VRB6      30.09R
PAGE           CLOUDY    68  31  25 NW3       30.00R
$$

AZZ009>014-017-051600-
NORTHEAST ARIZONA

CITY           SKY/WX    TMP DP  RH WIND       PRES   REMARKS
WINSLOW        MOSUNNY   66  31  27 E13       30.06R
SAINT JOHNS    MOSUNNY   71  27  19 S10       30.10F
WINDOW ROCK    SUNNY     56  35  45 CALM      30.22F
SHOW LOW       SUNNY     66  27  22 S17       30.14S
$$

AZZ023-051600-
GREATER PHOENIX AREA

CITY           SKY/WX    TMP DP  RH WIND       PRES   REMARKS
PHOENIX        MOSUNNY   79  27  14 SE9       29.85R
BUCKEYE        SUNNY     77  27  15 CALM      29.87S
GLENDALE       MOSUNNY   75  36  23 CALM      29.87R
LUKE AFB       SUNNY     76  38  25 NE7       29.84S
DEER VALLEY    SUNNY     76  28  17 SE3       29.87R
SCOTTSDALE     SUNNY     78  25  14 SE7       29.89R
MESA-FALCON    MOSUNNY  N/A N/A N/A E12       29.86R
MESA-GATEWAY   MOSUNNY   75  27  16 E10       29.89R
CHANDLER       MOSUNNY   77  34  20 CALM      29.87R
$$

AZZ027-028-051600-
SOUTHWEST MARICOPA COUNTY AND PINAL COUNTY

CITY           SKY/WX    TMP DP  RH WIND       PRES   REMARKS
CASA GRANDE    SUNNY     75  27  16 E3        29.89R
$$

AZZ503-504-507>509-051600-
SOUTHEAST ARIZONA

CITY           SKY/WX    TMP DP  RH WIND       PRES   REMARKS
TUCSON         SUNNY     75  30  19 CALM      29.97R
DAVIS-MONTHAN  SUNNY     75  32  20 SE3       29.96R
RYAN FIELD     SUNNY     75  30  19 MISG      29.96R
NOGALES        SUNNY     70  32  24 SE3       30.03S
SIERRA VISTA   SUNNY     74  31  20 SE14      30.08S
DOUGLAS        MOSUNNY   74  32  21 S15       30.06R
SAFFORD        SUNNY     74  25  16 S9        30.00R
$$

AZZ020-021-025-026-031-051600-
SOUTHWEST ARIZONA

CITY           SKY/WX    TMP DP  RH WIND       PRES   REMARKS
YUMA           PTSUNNY   74  50  42 S20       29.78R
$$

CAZ031-033-041-043-047-048-061-051600-
SOUTHERN CALIFORNIA

CITY           SKY/WX    TMP DP  RH WIND       PRES   REMARKS
DOWNTOWN L.A.  CLOUDY    61  53  75 CALM      29.91R
L.A. AIRPORT   CLOUDY    60  52  74 SW5       29.92R
SAN DIEGO      CLOUDY    62  52  69 S3        29.95R
BURBANK        CLOUDY    58  49  72 S5        29.91R
ONTARIO        CLOUDY    58  49  72 SW5       29.91S
RIVERSIDE      CLOUDY    58  51  78 CALM      29.92R
PALM SPRINGS   MOSUNNY   67  46  47 NW12      29.78S
EL CENTRO NAS  CLOUDY    67  45  45 W28G35    29.80R
IMPERIAL       CLOUDY    69  46  43 W22G29    29.77R
BLYTHE         MOSUNNY   75  42  30 SE13      29.77S
NEEDLES        MOSUNNY   81  32  17 SE15      29.77S
$$

NVZ020-UTZ003-051600-
SOUTHERN NEVADA-UTAH

CITY           SKY/WX    TMP DP  RH WIND       PRES   REMARKS
LAS VEGAS      PTSUNNY   74  35  24 VRB3      29.78R
SALT LAKE CITY CLOUDY    67  36  31 E9        29.93S
$$

NMZ009-TXZ055-051600-
NEW MEXICO-WEST TEXAS

CITY           SKY/WX    TMP DP  RH WIND       PRES   REMARKS
ALBUQUERQUE    MOSUNNY   61  27  27 NW5       30.22S
EL PASO        PTSUNNY   71  23  16 E5        30.14R
$$


........................KEY........................
SKY/WX - SKY CONDITION/WEATHER
TMP    - TEMPERATURE IN FAHRENHEIT
DP     - DEW POINT IN FAHRENHEIT
RH     - RELATIVE HUMIDITY IN PERCENT
WIND   - DIRECTION AND SPEED IN MILES PER HOUR (MPH)
VRB    - VARIABLE WIND DIRECTION
PRES   - MEAN SEA LEVEL PRESSURE IN INCHES OF MERCURY
         F - FALLING PRESSURE   R - RISING PRESSURE
         S - STEADY PRESSURE
VSB    - VISIBILITY IN MILES
HX     - HEAT INDEX IN FAHRENHEIT
WCI    - WIND CHILL INDEX IN FAHRENHEIT
TC     - TEMPERATURE IN CELSIUS WHICH IS ALSO KNOWN AS
         TEMPERATURE IN CENTIGRADE
AFB    - AIR FORCE BASE
         LUKE AFB IS LUKE AIR FORCE BASE
         DAVIS-MONTHAN IS DAVIS-MONTHAN AIR FORCE BASE
NAS    - NAVAL AIR STATION
         EL CENTRO NAS IS EL CENTRO NAVAL AIR STATION
N/A    - NOT AVAILABLE





USA.gov is the U.S. government's official web portal to all federal, state and local government web resources and services.